Location: Innsbruck
(47.2657°N, 11.3914°E)
Time: 02:38:34
(UTC+01:00)

ISS - Visible Passes

Search period start: 08 December 2021 00:00
Search period end: 18 December 2021 00:00
Orbit: 417 x 422 km, 51.6° (Epoch: 07 December)

Date Brightness Start Highest point End Pass type
(mag) Time Alt. Az. Time Alt. Az. Time Alt. Az.
08 Dec -0.8 18:04:54 10° W 18:07:16 18° SW 18:09:37 10° S visible
09 Dec -1.4 17:17:07 10° W 17:20:02 27° SW 17:22:56 10° SSE visible
11 Dec -0.1 17:20:33 10° WSW 17:21:39 11° SW 17:22:44 10° SSW visible
